Flag for Cook Islands Weather past 2 weeks in Rarotonga, Cook Islands

Now
77 °F

Partly cloudy.


Feels Like: 79 °F
Forecast: 75 / 82 °F
Wind: 14 mph from Southeast

Location: Rarotonga

Current Time: Dec 21, 2014 at 2:32:07 AM

Latest Report: Dec 21, 2014 at 2:00 AM


Visibility: N/A

Pressure: 29.77 "Hg

Humidity: 74%

Dew point: 68 °F

Location of RarotongaLocation

Historic Weather in Rarotonga — Graph

°F

Rarotonga temperature yesterday

Maximum temperature yesterday: 82 °F (at 2:00 PM)
Minimum temperature yesterday: 72 °F (at 7:00 AM)
Average temperature yesterday: 77 °F

Past Weeks' High & Low Weather Summary

 TemperatureHumidityPressure
High84 °F (Dec 14, 1:00 PM)100% (Dec 6, 5:00 PM)30.01 "Hg (Dec 6, 5:00 PM)
Low70 °F (Dec 8, 11:00 PM)51% (Dec 13, 1:00 PM)29.71 "Hg (Dec 8, 5:00 AM)
Average77 °F73%29.87 "Hg
* Reported Dec 6 1:00 AM — Dec 21 1:00 AM, Rarotonga, Weather by CustomWeather, © 2014

Note: Actual official high and low records may vary slightly from our data, if they occured in-between our weather recording intervals... More about our weather records

Advertising

Rarotonga weather history for previous 24 hours

 ConditionsComfort  
Time TempWeatherWind HumidityBarometerVisibility
1:00 AM
Dec 21
75 °FPassing clouds.12 mph78%29.80 "HgN/A
12:00 AM75 °FPassing clouds.9 mph78%29.80 "HgN/A
11:00 PM
Dec 20
77 °FPassing clouds.10 mph74%29.83 "HgN/A
10:00 PM77 °FPassing clouds.9 mph74%29.83 "HgN/A
9:00 PM77 °FPartly cloudy.16 mph74%29.80 "HgN/A
8:00 PM77 °FPartly cloudy.13 mph69%29.80 "HgN/A
7:00 PM77 °FBroken clouds.9 mph69%29.80 "HgN/A
6:00 PM79 °FBroken clouds.10 mph61%29.77 "HgN/A
5:00 PM79 °FBroken clouds.15 mph61%29.74 "HgN/A
4:00 PM81 °FBroken clouds.14 mph62%29.77 "HgN/A
3:00 PM81 °FBroken clouds.18 mph62%29.77 "HgN/A
2:00 PM82 °FBroken clouds.17 mph58%29.80 "HgN/A
1:00 PM81 °FBroken clouds.17 mph58%29.80 "HgN/A
12:00 PM81 °FBroken clouds.20 mph62%29.83 "HgN/A
11:00 AM81 °FBroken clouds.18 mph62%29.83 "HgN/A
10:00 AM77 °FScattered showers. Broken clouds.12 mph74%29.86 "HgN/A
9:00 AM73 °FSprinkles. Broken clouds.8 mph89%29.86 "HgN/A
8:00 AM73 °FSprinkles. Scattered clouds.10 mph83%29.86 "HgN/A
7:00 AM72 °FSprinkles. Scattered clouds.10 mph88%29.83 "HgN/A
6:00 AM75 °FScattered clouds.10 mph69%29.83 "HgN/A
5:00 AM75 °FPassing clouds.10 mph69%29.80 "HgN/A
4:00 AM75 °FPassing clouds.13 mph65%29.80 "HgN/A
3:00 AM75 °FPassing clouds.17 mph65%29.80 "HgN/A
2:00 AM75 °FPassing clouds.16 mph65%29.83 "HgN/A
Weather by CustomWeather, © 2014

See weather overviewHow to use our weather pages